Weather History for Baker, MT

Change the Weather History Date:

Thursday, January 16, 2014

  Actual Average Record
Temperature  
Mean Temperature 24 °F -  
Max Temperature 30 °F 24 °F 39 °F (2009)
Min Temperature 17 °F 0 °F -17 °F (2005)
Degree Days  
Heating Degree Days 42    
Moisture  
Dew Point 17 °F    
Average Humidity 74    
Maximum Humidity 88    
Minimum Humidity 66    
Precipitation  
Precipitation 0.00 in - - ()
Sea Level Pressure  
Sea Level Pressure 30.24 in    
Wind  
Wind Speed 23 mph (WNW)    
Max Wind Speed 30 mph    
Max Gust Speed 41 mph    
Visibility 10 miles    
Events      
Averages and records for this station are not official NWS values.
T = Trace of Precipitation, MM = Missing Value Source: NWS Daily Summary

Daily Weather History Graph

Daily Weather History Graph

Search for Another Location

Airport:

Trip Planner

Search our weather history database for the weather conditions in past years. The results will help you decide how hot, cold, wet, or windy it might be!

Date:

Astronomy

Jan. 16, 2014 Rise Set
Actual Time 7:35 AM MST 4:38 PM MST
Civil Twilight 7:01 AM MST 5:12 PM MST
Nautical Twilight 6:24 AM MST 5:49 PM MST
Astronomical Twilight 5:48 AM MST 6:25 PM MST
Moon 5:38 PM MST (1/16) 7:25 AM MST (1/16)
Length of Visible Light 10h 10m
Length of Day
9h 03m
Full, 100% of the Moon is Illuminated
Jan 16
Full
Jan 23
Last Quarter
Jan 30
New
Feb 6
First Quarter
Feb 14
Full

Hourly Weather History & Observations

Time (MST) Temp. Windchill Dew Point Humidity Pressure Visibility Wind Dir Wind Speed Gust Speed Precip Events Conditions
12:51 AM 30.0 °F 15.4 °F 19.9 °F 66% 30.02 in 10.0 mi WNW 27.6 mph 39.1 mph N/A   Clear
1:51 AM 28.9 °F 14.5 °F 19.9 °F 69% 30.05 in 10.0 mi WNW 25.3 mph 35.7 mph N/A   Clear
2:51 AM 28.0 °F 13.3 °F 19.0 °F 69% 30.06 in 10.0 mi WNW 25.3 mph 38.0 mph N/A   Clear
3:51 AM 28.0 °F 12.3 °F 19.0 °F 69% 30.07 in 10.0 mi WNW 29.9 mph 39.1 mph N/A   Clear
4:51 AM 27.0 °F 11.3 °F 18.0 °F 69% 30.10 in 10.0 mi WNW 27.6 mph 40.3 mph N/A   Clear
5:51 AM 26.1 °F 10.4 °F 18.0 °F 71% 30.12 in 10.0 mi WNW 26.5 mph 41.4 mph N/A   Clear
6:51 AM 26.1 °F 10.7 °F 18.0 °F 71% 30.16 in 10.0 mi WNW 25.3 mph 34.5 mph N/A   Partly Cloudy
7:51 AM 26.1 °F 10.7 °F 18.0 °F 71% 30.20 in 10.0 mi NW 25.3 mph 33.4 mph N/A   Overcast
8:17 AM 27.0 °F 11.0 °F 18.0 °F 69% 30.14 in 10.0 mi NW 28.8 mph 36.8 mph N/A   Overcast
8:51 AM 27.0 °F 11.0 °F 18.0 °F 69% 30.25 in 10.0 mi NW 28.8 mph 40.3 mph N/A   Overcast
9:51 AM 26.1 °F 11.3 °F 18.0 °F 71% 30.30 in 10.0 mi NW 23.0 mph 35.7 mph N/A   Overcast
10:51 AM 27.0 °F 13.5 °F 18.0 °F 69% 30.32 in 10.0 mi NW 19.6 mph 32.2 mph N/A   Overcast
11:51 AM 27.0 °F 12.8 °F 18.0 °F 69% 30.32 in 10.0 mi NW 21.9 mph 32.2 mph N/A   Overcast
12:51 PM 27.0 °F 12.8 °F 19.0 °F 72% 30.32 in 10.0 mi NW 21.9 mph 29.9 mph N/A   Overcast
1:51 PM 28.9 °F 15.1 °F 19.9 °F 69% 30.32 in 10.0 mi WNW 23.0 mph 29.9 mph N/A   Mostly Cloudy
2:51 PM 28.9 °F 15.1 °F 19.9 °F 69% 30.33 in 10.0 mi WNW 23.0 mph 31.1 mph N/A   Mostly Cloudy
3:04 PM 28.0 °F 13.6 °F 19.0 °F 69% 30.24 in 10.0 mi NW 24.2 mph - N/A   Scattered Clouds
3:51 PM 27.0 °F 15.2 °F 19.0 °F 72% 30.34 in 10.0 mi WNW 15.0 mph - N/A   Clear
4:51 PM 24.1 °F 12.5 °F 18.0 °F 77% 30.36 in 10.0 mi West 12.7 mph - N/A   Clear
5:51 PM 21.9 °F 11.0 °F 17.1 °F 82% 30.36 in 10.0 mi WNW 10.4 mph - N/A   Clear
6:51 PM 19.0 °F 8.2 °F 15.1 °F 85% 30.35 in 10.0 mi West 9.2 mph - N/A   Clear
7:51 PM 18.0 °F 6.1 °F 14.0 °F 84% 30.34 in 10.0 mi West 10.4 mph - N/A   Clear
8:51 PM 17.1 °F 8.7 °F 14.0 °F 88% 30.32 in 10.0 mi West 5.8 mph - N/A   Clear
9:51 PM 18.0 °F 5.4 °F 12.9 °F 81% 30.30 in 10.0 mi West 11.5 mph - N/A   Clear
10:51 PM 17.1 °F 8.7 °F 12.0 °F 81% 30.28 in 10.0 mi WNW 5.8 mph - N/A   Clear
11:51 PM 18.0 °F - 14.0 °F 84% 30.25 in 10.0 mi Calm Calm - N/A   Clear